Theta_e
325 325 325 326 326 326 327 328 329 329 325 320 320 322 325 328 328 327 326 324 320 317 313 312 309 306 305 303 301 300 302 301
326 325 325 325 326 327 328 329 329 329 324 322 323 326 327 328 326 326 324 320 317 316 313 311 307 306 305 302 301 302 302 300
326 326 326 325 325 326 327 328 329 326 323 320 323 324 326 326 324 323 319 319 318 315 314 309 306 305 304 302 302 302 302 299
329 326 327 326 325 325 326 327 329 327 324 323 325 325 324 321 319 319 319 319 316 313 309 307 306 305 304 303 302 302 302 299
330 328 327 327 325 325 325 326 327 327 324 323 324 323 321 318 318 318 317 314 310 309 308 306 306 305 303 302 301 300 298 299
331 329 328 327 325 325 325 326 325 325 325 324 324 322 320 319 317 317 314 312 310 308 307 306 305 304 303 302 300 298 297 296
329 328 327 325 324 325 325 325 324 323 324 324 324 321 319 317 316 314 312 312 311 309 307 306 304 303 301 300 301 298 295 295
326 325 324 323 323 324 325 324 324 323 323 324 323 322 320 319 317 314 312 310 309 308 306 304 303 302 302 302 298 296 299 295
324 323 323 323 323 324 324 324 324 323 324 324 324 323 320 319 319 316 312 311 310 308 305 304 301 303 302 302 299 300 296 295
320 320 321 322 323 324 323 324 324 323 322 322 322 322 320 321 319 316 312 310 309 306 303 301 302 304 303 301 299 296 295 294
316 318 320 322 323 324 324 324 324 324 323 322 322 320 321 322 320 317 311 309 307 303 301 303 304 303 302 298 297 295 294 294
320 320 322 323 324 324 325 325 325 324 324 323 322 320 321 321 318 312 309 307 306 303 304 304 303 301 298 297 295 295 294 295
323 323 325 325 325 326 326 325 325 325 323 322 321 319 318 315 311 308 306 305 303 305 305 303 300 297 297 297 295 294 294 294
324 325 325 326 326 326 325 324 324 320 321 320 315 312 309 307 305 304 303 303 304 304 301 299 298 297 296 295 295 294 294 293
324 325 325 324 324 323 323 319 319 318 314 309 308 306 305 304 304 305 306 304 301 300 298 300 297 296 295 295 294 294 293 293
321 322 323 322 319 315 313 313 311 310 309 307 306 305 304 304 305 303 301 299 299 298 298 297 296 296 295 295 294 293 293 293
318 317 318 317 313 312 310 310 309 309 308 306 304 305 305 304 301 299 299 298 296 296 296 296 296 296 296 294 294 293 293 292
313 313 313 311 310 309 308 307 306 306 305 303 303 303 301 300 298 296 296 297 298 299 298 296 295 294 294 293 293 293 292 292
307 306 304 304 304 304 304 303 303 301 299 300 300 298 297 298 298 298 297 298 298 296 294 293 292 292 292 292 292 292 292 292
Wind_Speed
19 20 21 21 22 20 20 19 18 19 18 20 21 21 20 19 19 18 16 17 21 21 21 19 17 14 12 9 8 8 5 3
17 19 20 22 23 23 24 22 22 25 24 22 20 21 21 21 18 16 17 20 22 21 22 19 16 14 11 9 9 6 3 0
19 20 20 22 24 28 25 25 25 26 25 25 21 21 21 20 19 19 21 21 21 23 20 19 17 14 12 11 8 6 3 2
16 21 24 23 25 30 30 26 28 27 24 23 20 21 18 19 20 21 22 22 22 21 20 18 17 14 12 10 9 7 5 4
15 22 25 26 26 23 26 25 26 27 28 24 27 21 18 17 22 25 24 22 22 21 20 19 17 15 13 12 10 7 3 3
19 22 25 25 24 27 28 26 26 27 29 28 27 20 19 20 22 24 24 24 22 21 21 20 20 18 17 14 9 4 3 5
19 21 21 22 23 23 27 24 24 25 28 28 28 25 23 19 18 23 23 24 24 23 24 23 22 21 19 14 8 7 5 6
17 17 21 22 24 27 25 24 24 28 30 29 31 30 28 25 22 27 26 24 27 29 29 27 26 24 18 10 8 8 8 8
17 19 24 25 27 25 27 26 26 27 33 33 35 35 31 27 29 28 29 32 32 30 28 27 25 19 10 8 8 9 7 8
16 15 21 24 25 28 36 26 26 24 29 32 30 32 32 33 31 25 27 31 30 28 27 26 19 14 9 8 9 8 9 9
9 12 18 21 22 23 23 25 27 25 24 25 29 29 33 35 31 29 29 31 29 29 29 24 20 14 9 8 10 10 10 10
8 10 15 17 17 20 21 23 23 23 23 24 27 25 30 30 29 27 27 29 33 34 29 22 14 10 8 8 11 11 11 12
5 8 12 14 17 18 21 19 20 20 19 20 22 22 22 22 21 22 25 27 31 26 19 13 9 8 8 13 14 14 13 12
4 5 9 11 13 14 13 13 14 15 17 16 15 14 14 15 16 18 19 21 17 14 10 4 3 9 11 13 16 16 15 15
5 4 3 4 6 9 11 10 11 10 10 11 12 13 15 16 19 23 19 19 12 10 9 9 10 11 15 15 17 19 18 17
2 4 5 8 8 7 7 8 8 11 15 15 15 16 20 26 21 20 15 15 11 6 8 12 12 14 15 18 19 19 18 17
7 6 7 8 8 10 13 13 13 13 15 16 20 24 20 17 18 17 13 7 4 7 11 14 16 18 22 20 20 18 19 18
9 9 10 10 11 12 14 16 17 17 18 19 20 20 21 21 15 13 11 5 8 14 13 13 17 18 18 20 21 23 20 21
9 11 15 15 16 18 20 19 20 22 23 25 25 26 24 17 10 5 4 12 12 10 12 13 15 17 17 19 20 22 21 23
Wind_Direction
188 180 187 193 198 198 201 208 211 205 200 196 196 196 201 206 209 207 207 193 184 181 177 171 169 160 152 147 142 128 103 63
199 196 198 199 205 204 204 206 202 196 191 187 193 196 203 207 208 209 201 189 185 186 182 177 172 167 157 155 148 140 118 189
197 201 200 203 207 209 208 210 204 201 201 199 201 201 207 212 205 200 197 192 193 191 188 181 176 170 167 166 162 169 179 207
201 201 204 203 207 208 212 211 211 208 203 199 198 200 206 202 196 195 195 195 193 191 186 185 179 178 178 177 183 176 194 213
211 206 209 208 211 209 212 212 211 209 209 205 205 197 195 205 198 197 193 191 191 190 190 188 186 190 185 184 183 184 188 236
212 212 208 209 205 208 212 216 214 214 214 214 212 210 208 205 200 196 195 192 194 195 195 193 194 190 186 180 177 203 217 245
218 213 207 204 203 205 212 210 212 211 212 214 218 219 216 203 201 199 197 195 197 201 200 199 195 187 178 174 183 202 190 257
213 206 200 197 197 205 208 209 212 215 217 218 222 223 226 218 216 208 201 194 195 198 198 194 187 179 178 181 188 197 262 262
214 211 204 198 196 199 207 208 213 213 219 226 229 228 228 222 227 223 212 206 203 199 196 190 179 175 184 218 214 257 258 247
221 215 206 201 199 201 210 207 212 212 216 219 223 232 226 230 230 227 214 209 203 194 186 176 176 191 212 209 237 244 241 251
221 214 209 209 208 206 205 211 214 213 215 216 222 223 231 232 233 224 213 207 196 183 180 183 198 222 222 207 236 228 243 250
217 212 212 209 204 204 208 210 214 213 216 216 227 225 232 228 226 215 208 197 193 184 188 194 198 211 205 247 244 248 251 246
215 197 196 197 202 205 208 211 212 217 218 222 225 226 222 211 207 202 197 191 185 192 191 193 179 193 225 237 241 245 250 248
252 217 203 201 201 202 201 199 205 214 222 218 212 195 184 176 179 177 163 174 180 179 171 197 250 257 241 244 247 247 254 251
224 208 199 193 189 181 190 192 207 199 183 151 140 138 142 162 162 150 168 169 165 156 177 240 248 256 265 262 251 250 254 248
192 181 160 157 151 135 130 135 145 144 131 132 134 140 143 147 151 144 139 147 157 171 215 232 250 265 265 262 254 256 251 249
73 116 128 131 131 127 127 129 132 134 127 126 140 140 137 135 136 137 139 145 157 201 249 262 264 262 267 265 263 261 256 254
75 83 97 106 110 116 112 114 118 117 117 120 124 127 126 123 116 109 109 157 260 277 268 266 271 275 278 278 277 269 262 259
79 86 92 98 107 108 112 114 113 111 109 116 122 119 113 107 100 123 196 287 286 268 279 285 287 289 293 291 287 280 268 266